Regional Weather Roundup
Issued by NWS Jackson, KY

Home | Current Version | Previous Version | Graphics & Text | Print | Product List | Glossary On
Versions: 1 2 3 4 5 6 7 8 9 10 11 12 13 14 15 16 17 18 19 20 21 22 23 24 25 26 27 28 29 30 31 32 33 34 35 36 37 38 39 40 41 42 43 44 45 46 47 48 49 50
000
ASUS43 KJKL 211511
RWRJKL

EAST KENTUCKY HOURLY WEATHER ROUNDUP
NATIONAL WEATHER SERVICE JACKSON KY
1100 AM EDT TUE OCT 21 2014

NOTE: "FAIR" INDICATES FEW OR NO CLOUDS BELOW 12,000 FEET WITH
NO SIGNIFICANT WEATHER AND/OR OBSTRUCTIONS TO VISIBILITY.

* THESE REPORTS ARE NOT UNDER NWS QUALITY CONTROL AND MAY NOT
  REPORT WEATHER SUCH AS PRECIPITATION AND FOG.

KYZ079-080-083-085-087-088-110-112-115-119-120-211600
...EASTERN KENTUCKY...

CITY           SKY/WX    TMP DP  RH WIND       PRES   REMARKS
JACKSON        CLOUDY    52  48  86 VRB7      30.01R
LONDON         PTSUNNY   59  46  62 NW7       30.03S
SOMERSET*      SUNNY     55  46  71 NW6       30.06S
MONTICELLO*      N/A    N/A N/A N/A MISG        N/A
MIDDLESBORO*   MOSUNNY   59  48  67 NW7       30.03R
HARLAN APT*    CLOUDY    55  46  71 W6        30.02S
HAZARD APT*    CLOUDY    55  52  88 NW8       30.01
BLACK MTN*       N/A     45  45 100 N3          N/A
PIKEVILLE APT* CLOUDY    52  50  93 W8        29.99R
BIG SANDY*     CLOUDY    54  50  87 W6        29.99S
MOREHEAD APT*  CLOUDY    54  46  76 NW10      30.03R
$$

KYZ035-036-041-042-044-050-067-078-099-211600
...CENTRAL KENTUCKY...

CITY           SKY/WX    TMP DP  RH WIND       PRES   REMARKS
MT STERLING*   CLOUDY    54  46  76 N9        30.04S HAZE
FLEMING/MASON* CLOUDY    52  45  76 NW8       30.02S
DANVILLE*      CLOUDY    52  45  76 N7        30.07R
RICHMOND*      CLOUDY    52  46  82 NW7       30.03S
LEXINGTON      CLOUDY    54  46  74 NW12      30.05R
FRANKFORT      CLOUDY    53  45  74 N9        30.05R
$$

KYZ091>093-OHZ055-061-077-WVZ005-015-034-035-042-211600
...SOUTHERN OHIO/WEST VIRGINIA...

CITY           SKY/WX    TMP DP  RH WIND       PRES   REMARKS
COVINGTON      CLOUDY    53  43  68 NW10      30.03S
COLUMBUS       CLOUDY    50  44  80 NW13G21   29.96R
DAYTON         PTSUNNY   52  43  71 N14       30.03R
WILMINGTON     CLOUDY    51  42  71 NW14      30.00R
HUNTINGTON     CLOUDY    54  49  83 W8        29.96R
CHARLESTON     LGT RAIN  53  50  89 W9G16     29.94R FOG
PINEVILLE*     CLOUDY    53  53  97 MISG      30.00S
BECKLEY        CLOUDY    52  46  80 W9        29.93F
BLUEFIELD      CLOUDY    53  46  77 W7        29.95S
$$

VAZ002-007-008-TNZ017-027-036-066-071-211600
...SOUTHWEST VIRGINIA/EAST TENNESSEE...

CITY           SKY/WX    TMP DP  RH WIND       PRES   REMARKS
WISE*          CLOUDY    52  50  93 W7        30.00S
JONESVILLE*    MOSUNNY   57  50  77 W9        30.03S
ABINGDON*      CLOUDY    56  51  84 W9        29.98F
BRISTOL        PTSUNNY   58  51  78 W12       30.00S
KNOXVILLE      MOSUNNY   60  52  74 W7        30.03S
OAK RIDGE      SUNNY     62  51  67 S3        30.05R
CROSSVILLE     SUNNY     58  47  66 NW7       30.07R
NASHVILLE      SUNNY     63  51  65 CALM      30.08R
$$

...KEY TO REMARKS...
VSB - VISIBILITY IN MILES
WCI - WIND CHILL INDEX
HX  - HEAT INDEX

$$


USA.gov is the U.S. government's official web portal to all federal, state and local government web resources and services.